Time,TemperatureF,DewpointF,PressureIn,WindDirection,WindDirectionDegrees,WindSpeedMPH,WindSpeedGustMPH,Humidity,HourlyPrecipIn,Conditions,Clouds,dailyrainin,SoftwareType,DateUTC
2013-04-17 08:17:00,66.4,44.4,28.94,North,0,0.0,0.0,45,0.00,,BKN050,0.00,VWS V14.01,2013-04-17 12:17:00,
2013-04-17 08:18:00,66.4,44.4,28.94,North,0,0.0,0.0,45,0.00,,BKN050,0.00,VWS V14.01,2013-04-17 12:18:00,
2013-04-17 08:23:00,66.0,44.7,28.94,North,0,0.0,0.0,46,0.00,,BKN050,0.00,VWS V14.01,2013-04-17 12:23:00,
2013-04-17 08:28:00,66.0,45.2,28.94,North,0,0.0,0.0,47,0.00,,BKN050,0.00,VWS V14.01,2013-04-17 12:28:00,
2013-04-17 08:33:00,66.0,44.7,28.94,North,0,0.0,0.0,46,0.00,,FEW110,0.00,VWS V14.01,2013-04-17 12:33:00,
2013-04-17 08:38:00,65.8,45.1,28.94,North,0,0.0,0.0,47,0.00,,FEW110,0.00,VWS V14.01,2013-04-17 12:38:00,
2013-04-17 08:43:00,65.8,45.6,28.94,North,0,0.0,0.0,48,0.00,,FEW110,0.00,VWS V14.01,2013-04-17 12:43:00,
2013-04-17 08:48:00,66.0,46.3,28.94,North,0,0.0,0.0,49,0.00,,FEW110,0.00,VWS V14.01,2013-04-17 12:48:00,
2013-04-17 08:53:00,65.8,46.2,28.94,North,0,0.0,0.0,49,0.00,,FEW110,0.00,VWS V14.01,2013-04-17 12:53:00,
2013-04-17 08:58:00,66.0,46.3,28.94,North,0,0.0,0.0,49,0.00,,FEW110,0.00,VWS V14.01,2013-04-17 12:58:00,
2013-04-17 09:03:00,66.0,45.8,28.94,North,357,0.0,0.0,48,0.00,,FEW120,0.00,VWS V14.01,2013-04-17 13:03:00,
2013-04-17 09:08:00,66.2,45.4,28.97,North,3,0.0,0.0,47,0.00,,FEW120,0.00,VWS V14.01,2013-04-17 13:08:00,
2013-04-17 09:13:00,66.4,45.0,28.97,North,3,0.0,0.0,46,0.00,,FEW120,0.00,VWS V14.01,2013-04-17 13:13:00,
2013-04-17 09:18:00,66.4,45.0,28.97,North,3,0.0,0.0,46,0.00,,FEW120,0.00,VWS V14.01,2013-04-17 13:18:00,
2013-04-17 09:24:00,66.6,45.7,28.97,North,3,0.0,0.0,47,0.00,,FEW120,0.00,VWS V14.01,2013-04-17 13:24:00,
2013-04-17 09:28:00,66.7,45.3,28.97,North,3,0.0,0.0,46,0.00,,FEW120,0.00,VWS V14.01,2013-04-17 13:28:00,
2013-04-17 09:33:00,66.9,45.5,28.97,North,3,0.0,0.0,46,0.00,,FEW120,0.00,VWS V14.01,2013-04-17 13:33:00,
2013-04-17 09:39:00,66.9,46.0,28.97,North,3,0.0,0.0,47,0.00,,FEW120,0.00,VWS V14.01,2013-04-17 13:39:00,
2013-04-17 09:44:00,66.9,45.5,28.97,North,3,0.0,0.0,46,0.00,,FEW120,0.00,VWS V14.01,2013-04-17 13:44:00,
2013-04-17 09:49:00,66.9,44.9,28.97,North,3,0.0,0.0,45,0.00,,FEW120,0.00,VWS V14.01,2013-04-17 13:49:00,
2013-04-17 09:54:00,66.9,44.9,28.97,North,3,0.0,0.0,45,0.00,,FEW120,0.00,VWS V14.01,2013-04-17 13:54:00,
2013-04-17 09:59:00,67.1,45.7,28.97,North,3,0.0,0.0,46,0.00,,FEW120,0.00,VWS V14.01,2013-04-17 13:59:00,
2013-04-17 10:04:00,67.1,46.2,28.97,North,3,0.0,0.0,47,0.00,,BKN110,0.00,VWS V14.01,2013-04-17 14:04:00,
2013-04-17 10:09:00,67.1,45.7,28.97,North,3,0.0,0.0,46,0.00,,BKN110,0.00,VWS V14.01,2013-04-17 14:09:00,
2013-04-17 10:14:00,67.3,45.8,28.97,North,3,0.0,0.0,46,0.00,,BKN110,0.00,VWS V14.01,2013-04-17 14:14:00,
2013-04-17 10:19:00,67.5,46.5,28.97,North,3,0.0,0.0,47,0.00,,BKN110,0.00,VWS V14.01,2013-04-17 14:19:00,
2013-04-17 10:24:00,67.5,47.1,28.97,North,3,0.0,0.0,48,0.00,,BKN110,0.00,VWS V14.01,2013-04-17 14:24:00,
2013-04-17 10:29:00,67.6,46.7,28.97,North,3,0.0,0.0,47,0.00,,BKN110,0.00,VWS V14.01,2013-04-17 14:29:00,
2013-04-17 10:34:00,67.8,46.3,28.97,North,3,0.0,0.0,46,0.00,,BKN110,0.00,VWS V14.01,2013-04-17 14:34:00,
2013-04-17 10:39:00,67.8,45.1,28.97,North,3,0.0,0.0,44,0.00,,BKN110,0.00,VWS V14.01,2013-04-17 14:39:00,
2013-04-17 10:44:00,68.0,46.5,28.97,North,3,0.0,0.0,46,0.00,,BKN110,0.00,VWS V14.01,2013-04-17 14:44:00,
2013-04-17 10:49:00,68.2,45.5,28.97,North,3,0.0,0.0,44,0.00,,BKN110,0.00,VWS V14.01,2013-04-17 14:49:00,
2013-04-17 10:54:00,68.4,45.6,28.97,North,3,0.0,0.0,44,0.00,,BKN110,0.00,VWS V14.01,2013-04-17 14:54:00,
2013-04-17 10:59:00,68.5,45.2,28.97,North,3,0.0,0.0,43,0.00,,BKN110,0.00,VWS V14.01,2013-04-17 14:59:00,
2013-04-17 11:04:00,68.7,45.3,28.97,North,3,0.0,0.0,43,0.00,,FEW110,0.00,VWS V14.01,2013-04-17 15:04:00,
2013-04-17 11:09:00,68.7,45.3,28.97,North,3,0.0,0.0,43,0.00,,FEW110,0.00,VWS V14.01,2013-04-17 15:09:00,
2013-04-17 11:14:00,68.9,44.9,28.97,North,3,0.0,0.0,42,0.00,,FEW110,0.00,VWS V14.01,2013-04-17 15:14:00,
2013-04-17 11:19:00,69.1,45.7,28.97,North,3,0.0,0.0,43,0.00,,FEW110,0.00,VWS V14.01,2013-04-17 15:19:00,
2013-04-17 11:24:00,68.9,44.9,28.97,North,3,0.0,0.0,42,0.00,,FEW110,0.00,VWS V14.01,2013-04-17 15:24:00,
2013-04-17 11:29:00,69.1,45.7,28.97,North,3,0.0,0.0,43,0.00,,FEW110,0.00,VWS V14.01,2013-04-17 15:29:00,
2013-04-17 11:34:00,69.3,45.8,28.97,North,3,0.0,0.0,43,0.00,,FEW110,0.00,VWS V14.01,2013-04-17 15:34:00,
2013-04-17 11:39:00,69.3,45.2,28.97,North,3,0.0,0.0,42,0.00,,FEW110,0.00,VWS V14.01,2013-04-17 15:39:00,
2013-04-17 11:45:00,69.4,46.0,28.97,North,3,0.0,0.0,43,0.00,,FEW110,0.00,VWS V14.01,2013-04-17 15:45:00,
2013-04-17 11:50:00,69.4,44.7,28.97,North,3,0.0,0.0,41,0.00,,FEW110,0.00,VWS V14.01,2013-04-17 15:50:00,
2013-04-17 11:55:00,69.6,45.5,28.97,North,3,0.0,0.0,42,0.00,,FEW110,0.00,VWS V14.01,2013-04-17 15:55:00,
2013-04-17 12:00:00,69.8,45.7,28.97,North,3,0.0,0.0,42,0.00,,FEW110,0.00,VWS V14.01,2013-04-17 16:00:00,
2013-04-17 12:05:00,69.8,44.4,28.97,North,3,0.0,0.0,40,0.00,,OVC110,0.00,VWS V14.01,2013-04-17 16:05:00,
2013-04-17 12:10:00,70.2,44.1,28.97,North,3,0.0,0.0,39,0.00,,OVC110,0.00,VWS V14.01,2013-04-17 16:10:00,
2013-04-17 12:15:00,70.2,43.4,28.97,North,3,0.0,0.0,38,0.00,,OVC110,0.00,VWS V14.01,2013-04-17 16:15:00,
2013-04-17 12:20:00,70.5,43.7,28.97,North,3,0.0,0.0,38,0.00,,OVC110,0.00,VWS V14.01,2013-04-17 16:20:00,
2013-04-17 12:25:00,71.2,45.7,28.97,North,3,0.0,0.0,40,0.00,,OVC110,0.00,VWS V14.01,2013-04-17 16:25:00,
2013-04-17 12:30:00,71.6,42.5,28.97,North,3,0.0,0.0,35,0.00,,OVC110,0.00,VWS V14.01,2013-04-17 16:30:00,
2013-04-17 12:35:00,72.0,42.8,28.97,North,3,0.0,0.0,35,0.00,,OVC110,0.00,VWS V14.01,2013-04-17 16:35:00,
2013-04-17 12:40:00,72.7,42.7,28.97,North,3,0.0,0.0,34,0.00,,OVC110,0.00,VWS V14.01,2013-04-17 16:40:00,
2013-04-17 12:45:00,73.2,41.6,28.97,North,3,0.0,0.0,32,0.00,,OVC110,0.00,VWS V14.01,2013-04-17 16:45:00,
2013-04-17 12:50:00,72.9,42.1,28.97,North,3,0.0,0.0,33,0.00,,OVC110,0.00,VWS V14.01,2013-04-17 16:50:00,
2013-04-17 12:55:00,73.0,42.3,28.94,North,3,0.0,0.0,33,0.00,,OVC110,0.00,VWS V14.01,2013-04-17 16:55:00,
2013-04-17 13:00:00,73.2,42.4,28.94,North,3,0.0,0.0,33,0.00,,OVC110,0.00,VWS V14.01,2013-04-17 17:00:00,
2013-04-17 13:05:00,73.0,41.5,28.94,North,3,0.0,0.0,32,0.00,,SCT120,0.00,VWS V14.01,2013-04-17 17:05:00,
2013-04-17 13:10:00,73.2,42.4,28.94,North,3,0.0,0.0,33,0.00,,SCT120,0.00,VWS V14.01,2013-04-17 17:10:00,
2013-04-17 13:15:00,73.8,42.1,28.94,North,3,0.0,0.0,32,0.00,,SCT120,0.00,VWS V14.01,2013-04-17 17:15:00,
2013-04-17 13:20:00,74.3,41.7,28.94,North,3,0.0,0.0,31,0.00,,SCT120,0.00,VWS V14.01,2013-04-17 17:20:00,
2013-04-17 13:25:00,74.1,42.4,28.94,North,3,0.0,0.0,32,0.00,,SCT120,0.00,VWS V14.01,2013-04-17 17:25:00,
2013-04-17 13:30:00,74.3,42.6,28.94,North,3,0.0,0.0,32,0.00,,SCT120,0.00,VWS V14.01,2013-04-17 17:30:00,
2013-04-17 13:35:00,74.3,42.6,28.94,North,3,0.0,0.0,32,0.00,,SCT120,0.00,VWS V14.01,2013-04-17 17:35:00,
2013-04-17 13:41:00,74.1,42.4,28.94,North,3,0.0,0.0,32,0.00,,SCT120,0.00,VWS V14.01,2013-04-17 17:41:00,
2013-04-17 13:46:00,73.8,42.1,28.94,North,3,0.0,0.0,32,0.00,,SCT120,0.00,VWS V14.01,2013-04-17 17:46:00,
2013-04-17 13:51:00,74.1,42.4,28.94,North,3,0.0,0.0,32,0.00,,SCT120,0.00,VWS V14.01,2013-04-17 17:51:00,
2013-04-17 13:56:00,74.3,43.4,28.94,WSW,245,2.2,4.9,33,0.00,,SCT120,0.00,VWS V14.01,2013-04-17 17:56:00,
2013-04-17 14:01:00,74.5,42.7,28.94,WSW,245,3.6,3.6,32,0.00,,CLR,0.00,VWS V14.01,2013-04-17 18:01:00,
2013-04-17 14:06:00,74.5,42.7,28.94,WSW,245,3.6,3.6,32,0.00,,CLR,0.00,VWS V14.01,2013-04-17 18:06:00,
2013-04-17 14:11:00,74.7,42.9,28.94,WSW,245,3.6,3.6,32,0.00,,CLR,0.00,VWS V14.01,2013-04-17 18:11:00,
2013-04-17 14:16:00,74.7,42.9,28.94,WSW,238,2.7,4.0,32,0.00,,CLR,0.00,VWS V14.01,2013-04-17 18:16:00,
2013-04-17 14:21:00,74.8,43.0,28.94,WSW,241,4.0,4.0,32,0.00,,CLR,0.00,VWS V14.01,2013-04-17 18:21:00,
2013-04-17 14:26:00,75.0,43.2,28.94,WSW,250,3.1,3.1,32,0.00,,CLR,0.00,VWS V14.01,2013-04-17 18:26:00,
2013-04-17 14:31:00,75.2,42.5,28.94,West,276,5.4,5.4,31,0.00,,CLR,0.00,VWS V14.01,2013-04-17 18:31:00,
2013-04-17 14:36:00,75.4,42.7,28.94,West,276,5.4,5.4,31,0.00,,CLR,0.00,VWS V14.01,2013-04-17 18:36:00,
2013-04-17 14:41:00,75.2,42.5,28.94,West,276,5.4,5.4,31,0.00,,CLR,0.00,VWS V14.01,2013-04-17 18:41:00,
2013-04-17 14:46:00,75.0,42.4,28.94,SW,236,0.0,4.0,31,0.00,,CLR,0.00,VWS V14.01,2013-04-17 18:46:00,
2013-04-17 14:51:00,75.6,42.8,28.94,WNW,284,6.3,6.3,31,0.00,,CLR,0.00,VWS V14.01,2013-04-17 18:51:00,
2013-04-17 14:56:00,75.9,43.1,28.94,West,274,4.9,5.4,31,0.00,,CLR,0.00,VWS V14.01,2013-04-17 18:56:00,
2013-04-17 15:01:00,75.9,42.3,28.94,SW,225,2.2,2.2,30,0.00,,FEW120,0.00,VWS V14.01,2013-04-17 19:01:00,
2013-04-17 15:06:00,76.5,43.6,28.91,West,266,2.7,2.7,31,0.00,,FEW120,0.00,VWS V14.01,2013-04-17 19:06:00,
2013-04-17 15:11:00,76.5,42.8,28.91,WNW,284,2.2,2.2,30,0.00,,FEW120,0.00,VWS V14.01,2013-04-17 19:11:00,
2013-04-17 15:16:00,76.3,43.5,28.91,SW,224,2.7,2.7,31,0.00,,FEW120,0.00,VWS V14.01,2013-04-17 19:16:00,
2013-04-17 15:21:00,76.1,40.7,28.91,WSW,248,0.0,0.0,28,0.00,,FEW120,0.00,VWS V14.01,2013-04-17 19:21:00,
2013-04-17 15:27:00,76.1,43.3,28.91,SSW,210,3.6,3.6,31,0.00,,FEW120,0.00,VWS V14.01,2013-04-17 19:27:00,
2013-04-17 15:32:00,76.3,40.8,28.91,ENE,58,0.0,0.0,28,0.00,,FEW120,0.00,VWS V14.01,2013-04-17 19:32:00,
2013-04-17 15:37:00,76.8,41.3,28.91,SE,136,3.1,3.1,28,0.00,,FEW120,0.00,VWS V14.01,2013-04-17 19:37:00,
2013-04-17 15:42:00,76.6,41.1,28.91,SE,136,3.1,3.1,28,0.00,,FEW120,0.00,VWS V14.01,2013-04-17 19:42:00,
2013-04-17 15:47:00,77.0,41.4,28.91,ESE,121,0.0,0.0,28,0.00,,FEW120,0.00,VWS V14.01,2013-04-17 19:47:00,
2013-04-17 15:52:00,77.2,39.7,28.88,East,97,2.7,2.7,26,0.00,,FEW120,0.00,VWS V14.01,2013-04-17 19:52:00,
2013-04-17 15:57:00,77.2,39.7,28.88,NE,41,0.0,0.0,26,0.00,,FEW120,0.00,VWS V14.01,2013-04-17 19:57:00,
2013-04-17 16:02:00,77.4,41.7,28.88,NE,41,0.0,0.0,28,0.00,,FEW120,0.00,VWS V14.01,2013-04-17 20:02:00,
2013-04-17 16:07:00,77.4,39.8,28.88,NNE,25,0.0,0.0,26,0.00,,FEW120,0.00,VWS V14.01,2013-04-17 20:07:00,
2013-04-17 16:12:00,77.9,41.3,28.88,NNW,328,0.0,0.0,27,0.00,,FEW120,0.00,VWS V14.01,2013-04-17 20:12:00,
2013-04-17 16:17:00,78.3,40.6,28.88,NE,46,0.0,0.0,26,0.00,,FEW120,0.00,VWS V14.01,2013-04-17 20:17:00,
2013-04-17 16:22:00,78.1,38.4,28.88,West,265,3.1,3.1,24,0.00,,FEW120,0.00,VWS V14.01,2013-04-17 20:22:00,
2013-04-17 16:27:00,78.6,41.9,28.88,SW,217,2.7,2.7,27,0.00,,FEW120,0.00,VWS V14.01,2013-04-17 20:27:00,
2013-04-17 16:32:00,79.0,40.2,28.88,SSW,213,2.2,2.2,25,0.00,,FEW120,0.00,VWS V14.01,2013-04-17 20:32:00,
2013-04-17 16:37:00,79.0,40.2,28.88,NE,50,2.2,2.2,25,0.00,,FEW120,0.00,VWS V14.01,2013-04-17 20:37:00,
2013-04-17 16:42:00,79.2,40.3,28.88,East,100,2.2,2.2,25,0.00,,FEW120,0.00,VWS V14.01,2013-04-17 20:42:00,
2013-04-17 16:48:00,78.8,39.0,28.88,East,82,0.0,0.0,24,0.00,,FEW120,0.00,VWS V14.01,2013-04-17 20:48:00,
2013-04-17 16:53:00,78.8,37.9,28.88,SSW,198,2.7,3.6,23,0.00,,FEW120,0.00,VWS V14.01,2013-04-17 20:53:00,
2013-04-17 16:58:00,79.0,38.1,28.88,ESE,102,0.0,0.0,23,0.00,,FEW120,0.00,VWS V14.01,2013-04-17 20:58:00,
2013-04-17 17:03:00,79.2,40.3,28.88,SSE,149,2.2,2.2,25,0.00,,FEW040,0.00,VWS V14.01,2013-04-17 21:03:00,
2013-04-17 17:08:00,79.3,39.5,28.88,SSE,153,0.0,0.0,24,0.00,,FEW040,0.00,VWS V14.01,2013-04-17 21:08:00,
2013-04-17 17:13:00,79.0,39.2,28.88,NNE,25,4.0,4.0,24,0.00,,FEW040,0.00,VWS V14.01,2013-04-17 21:13:00,
2013-04-17 17:18:00,78.4,39.7,28.88,East,85,0.0,0.0,25,0.00,,FEW040,0.00,VWS V14.01,2013-04-17 21:18:00,
2013-04-17 17:23:00,78.3,38.5,28.88,ESE,117,0.0,0.0,24,0.00,,FEW040,0.00,VWS V14.01,2013-04-17 21:23:00,
2013-04-17 17:28:00,78.3,38.5,28.88,ESE,117,0.0,0.0,24,0.00,,FEW040,0.00,VWS V14.01,2013-04-17 21:28:00,
2013-04-17 17:33:00,78.4,38.7,28.88,ESE,117,0.0,0.0,24,0.00,,FEW040,0.00,VWS V14.01,2013-04-17 21:33:00,
2013-04-17 17:38:00,78.4,39.7,28.88,NW,307,3.1,3.1,25,0.00,,FEW040,0.00,VWS V14.01,2013-04-17 21:38:00,
2013-04-17 17:43:00,78.3,40.6,28.88,SW,235,0.0,0.0,26,0.00,,FEW040,0.00,VWS V14.01,2013-04-17 21:43:00,
2013-04-17 17:48:00,77.9,41.3,28.88,West,262,2.2,2.2,27,0.00,,FEW040,0.00,VWS V14.01,2013-04-17 21:48:00,
2013-04-17 17:53:00,77.5,42.8,28.88,WSW,254,0.0,0.0,29,0.00,,FEW040,0.00,VWS V14.01,2013-04-17 21:53:00,
2013-04-17 17:58:00,77.4,39.8,28.88,West,275,0.0,0.0,26,0.00,,FEW040,0.00,VWS V14.01,2013-04-17 21:58:00,
2013-04-17 18:03:00,77.0,40.5,28.88,West,264,2.2,2.2,27,0.00,,BKN100,0.00,VWS V14.01,2013-04-17 22:03:00,
2013-04-17 18:08:00,76.8,41.3,28.88,WSW,238,2.2,2.2,28,0.00,,BKN100,0.00,VWS V14.01,2013-04-17 22:08:00,
2013-04-17 18:13:00,76.8,40.3,28.88,WNW,283,0.0,0.0,27,0.00,,BKN100,0.00,VWS V14.01,2013-04-17 22:13:00,
2013-04-17 18:18:00,76.8,41.3,28.88,WNW,283,0.0,0.0,28,0.00,,BKN100,0.00,VWS V14.01,2013-04-17 22:18:00,
2013-04-17 18:24:00,76.8,40.3,28.88,WNW,283,0.0,0.0,27,0.00,,BKN100,0.00,VWS V14.01,2013-04-17 22:24:00,
2013-04-17 18:29:00,76.6,40.2,28.88,WNW,283,0.0,0.0,27,0.00,,BKN100,0.00,VWS V14.01,2013-04-17 22:29:00,
2013-04-17 18:34:00,76.6,41.1,28.88,WNW,283,0.0,0.0,28,0.00,,BKN100,0.00,VWS V14.01,2013-04-17 22:34:00,
2013-04-17 18:39:00,76.6,39.2,28.88,WNW,283,0.0,0.0,26,0.00,,BKN100,0.00,VWS V14.01,2013-04-17 22:39:00,
2013-04-17 18:44:00,76.5,39.1,28.88,WNW,283,0.0,0.0,26,0.00,,BKN100,0.00,VWS V14.01,2013-04-17 22:44:00,
2013-04-17 18:49:00,76.5,40.0,28.88,WNW,283,0.0,0.0,27,0.00,,BKN100,0.00,VWS V14.01,2013-04-17 22:49:00,
2013-04-17 18:54:00,76.3,39.9,28.88,WNW,283,0.0,0.0,27,0.00,,BKN100,0.00,VWS V14.01,2013-04-17 22:54:00,
2013-04-17 18:59:00,76.1,40.7,28.88,WNW,283,0.0,0.0,28,0.00,,BKN100,0.00,VWS V14.01,2013-04-17 22:59:00,
2013-04-17 19:04:00,75.9,42.3,28.88,WNW,283,0.0,0.0,30,0.00,,SCT110,0.00,VWS V14.01,2013-04-17 23:04:00,
2013-04-17 19:09:00,75.6,42.0,28.88,WNW,283,0.0,0.0,30,0.00,,SCT110,0.00,VWS V14.01,2013-04-17 23:09:00,
2013-04-17 19:14:00,75.4,41.8,28.88,WNW,283,0.0,0.0,30,0.00,,SCT110,0.00,VWS V14.01,2013-04-17 23:14:00,
2013-04-17 19:19:00,75.0,42.4,28.88,WNW,283,0.0,0.0,31,0.00,,SCT110,0.00,VWS V14.01,2013-04-17 23:19:00,
2013-04-17 19:24:00,74.3,42.6,28.88,WNW,283,0.0,0.0,32,0.00,,SCT110,0.00,VWS V14.01,2013-04-17 23:24:00,
2013-04-17 19:29:00,73.9,42.2,28.88,WNW,283,0.0,0.0,32,0.00,,SCT110,0.00,VWS V14.01,2013-04-17 23:29:00,
2013-04-17 19:34:00,73.6,42.7,28.88,WNW,283,0.0,0.0,33,0.00,,SCT110,0.00,VWS V14.01,2013-04-17 23:34:00,
2013-04-17 19:39:00,73.2,43.2,28.88,WNW,283,0.0,0.0,34,0.00,,SCT110,0.00,VWS V14.01,2013-04-17 23:39:00,
2013-04-17 19:44:00,72.9,42.9,28.88,WNW,283,0.0,0.0,34,0.00,,SCT110,0.00,VWS V14.01,2013-04-17 23:44:00,
2013-04-17 19:49:00,72.5,43.3,28.88,WNW,283,0.0,0.0,35,0.00,,SCT110,0.00,VWS V14.01,2013-04-17 23:49:00,
2013-04-17 19:54:00,71.8,42.7,28.88,WNW,283,0.0,0.0,35,0.00,,SCT110,0.00,VWS V14.01,2013-04-17 23:54:00,
2013-04-17 19:59:00,71.4,43.8,28.88,WNW,283,0.0,0.0,37,0.00,,SCT110,0.00,VWS V14.01,2013-04-17 23:59:00,
2013-04-17 20:04:00,71.1,44.2,28.88,WNW,283,0.0,0.0,38,0.00,,FEW120,0.00,VWS V14.01,2013-04-18 00:04:00,
2013-04-17 20:09:00,70.7,44.5,28.91,WNW,283,0.0,0.0,39,0.00,,FEW120,0.00,VWS V14.01,2013-04-18 00:09:00,
2013-04-17 20:14:00,70.5,44.4,28.91,WNW,283,0.0,0.0,39,0.00,,FEW120,0.00,VWS V14.01,2013-04-18 00:14:00,
2013-04-17 20:19:00,70.3,44.9,28.91,WNW,283,0.0,0.0,40,0.00,,FEW120,0.00,VWS V14.01,2013-04-18 00:19:00,
2013-04-17 20:24:00,69.8,45.1,28.88,WNW,283,0.0,0.0,41,0.00,,FEW120,0.00,VWS V14.01,2013-04-18 00:24:00,
2013-04-17 20:29:00,69.4,46.0,28.88,WNW,283,0.0,0.0,43,0.00,,FEW120,0.00,VWS V14.01,2013-04-18 00:29:00,
2013-04-17 20:35:00,69.1,45.7,28.88,WNW,283,0.0,0.0,43,0.00,,FEW120,0.00,VWS V14.01,2013-04-18 00:35:00,
2013-04-17 20:40:00,68.7,46.0,28.91,WNW,283,0.0,0.0,44,0.00,,FEW120,0.00,VWS V14.01,2013-04-18 00:40:00,
2013-04-17 20:45:00,68.4,45.6,28.91,WNW,283,0.0,0.0,44,0.00,,FEW120,0.00,VWS V14.01,2013-04-18 00:45:00,
2013-04-17 20:50:00,68.2,45.5,28.91,WNW,283,0.0,0.0,44,0.00,,FEW120,0.00,VWS V14.01,2013-04-18 00:50:00,
2013-04-17 20:55:00,68.2,45.5,28.91,WNW,283,0.0,0.0,44,0.00,,FEW120,0.00,VWS V14.01,2013-04-18 00:55:00,
2013-04-17 21:00:00,67.8,45.7,28.91,WNW,283,0.0,0.0,45,0.00,,FEW120,0.00,VWS V14.01,2013-04-18 01:00:00,
2013-04-17 21:05:00,67.6,46.1,28.91,WNW,283,0.0,0.0,46,0.00,,CLR,0.00,VWS V14.01,2013-04-18 01:05:00,
2013-04-17 21:10:00,67.3,46.4,28.91,WNW,283,0.0,0.0,47,0.00,,CLR,0.00,VWS V14.01,2013-04-18 01:10:00,
2013-04-17 21:15:00,66.9,46.0,28.91,WNW,283,0.0,0.0,47,0.00,,CLR,0.00,VWS V14.01,2013-04-18 01:15:00,
2013-04-17 21:20:00,66.7,46.5,28.91,WNW,283,0.0,0.0,48,0.00,,CLR,0.00,VWS V14.01,2013-04-18 01:20:00,
2013-04-17 21:25:00,66.4,46.1,28.91,WNW,283,0.0,0.0,48,0.00,,CLR,0.00,VWS V14.01,2013-04-18 01:25:00,
2013-04-17 21:30:00,66.2,46.5,28.91,WNW,283,0.0,0.0,49,0.00,,CLR,0.00,VWS V14.01,2013-04-18 01:30:00,
2013-04-17 21:35:00,66.0,46.9,28.91,WNW,283,0.0,0.0,50,0.00,,CLR,0.00,VWS V14.01,2013-04-18 01:35:00,
2013-04-17 21:40:00,65.8,46.7,28.91,WNW,283,0.0,0.0,50,0.00,,CLR,0.00,VWS V14.01,2013-04-18 01:40:00,
2013-04-17 21:45:00,65.8,46.7,28.91,WNW,283,0.0,0.0,50,0.00,,CLR,0.00,VWS V14.01,2013-04-18 01:45:00,
2013-04-17 21:50:00,65.8,46.7,28.91,WNW,283,0.0,0.0,50,0.00,,CLR,0.00,VWS V14.01,2013-04-18 01:50:00,
2013-04-17 21:55:00,65.7,46.5,28.91,WNW,283,0.0,0.0,50,0.00,,CLR,0.00,VWS V14.01,2013-04-18 01:55:00,
2013-04-17 22:00:00,65.5,46.4,28.91,WNW,283,0.0,0.0,50,0.00,,CLR,0.00,VWS V14.01,2013-04-18 02:00:00,
2013-04-17 22:05:00,65.1,46.0,28.91,WNW,283,0.0,0.0,50,0.00,,CLR,0.00,VWS V14.01,2013-04-18 02:05:00,
2013-04-17 22:10:00,64.9,46.9,28.91,WNW,283,0.0,0.0,52,0.00,,CLR,0.00,VWS V14.01,2013-04-18 02:10:00,
2013-04-17 22:15:00,64.6,46.6,28.91,SW,226,0.0,0.0,52,0.00,,CLR,0.00,VWS V14.01,2013-04-18 02:15:00,
2013-04-17 22:20:00,64.4,46.9,28.91,SW,226,0.0,0.0,53,0.00,,CLR,0.00,VWS V14.01,2013-04-18 02:20:00,
2013-04-17 22:25:00,64.0,47.1,28.91,SW,226,0.0,0.0,54,0.00,,CLR,0.00,VWS V14.01,2013-04-18 02:25:00,
2013-04-17 22:30:00,63.9,46.9,28.91,SW,226,0.0,0.0,54,0.00,,CLR,0.00,VWS V14.01,2013-04-18 02:30:00,
2013-04-17 22:36:00,63.7,47.2,28.91,SW,226,0.0,0.0,55,0.00,,CLR,0.00,VWS V14.01,2013-04-18 02:36:00,
2013-04-17 22:41:00,63.5,47.5,28.91,SW,226,0.0,0.0,56,0.00,,CLR,0.00,VWS V14.01,2013-04-18 02:41:00,
2013-04-17 22:46:00,63.1,47.7,28.91,SW,226,0.0,0.0,57,0.00,,CLR,0.00,VWS V14.01,2013-04-18 02:46:00,
2013-04-17 22:51:00,63.0,48.0,28.91,SW,226,0.0,0.0,58,0.00,,CLR,0.00,VWS V14.01,2013-04-18 02:51:00,
2013-04-17 22:56:00,63.0,48.0,28.91,SW,226,0.0,0.0,58,0.00,,CLR,0.00,VWS V14.01,2013-04-18 02:56:00,